Terminal Aerodrome Forecast
Issued by NWS

Home | Current Version | Previous Version | Text Only | Print | Product List | Glossary On
Versions: 1 2 3 4 5 6 7 8 9 10 11 12 13 14
000
FTUS45 KRIW 221700
TAFCPR
TAF
KCPR 221725Z 2218/2318 22014G24KT P6SM VCTS SCT060CB BKN080
     FM230000 27012KT P6SM VCSH BKN080
     FM230400 24008KT P6SM BKN080
     FM231200 23012G20KT P6SM SCT080=

USA.gov is the U.S. government's official web portal to all federal, state and local government web resources and services.